#timestamp,LO_Frequency,Hit,StdDev 
1708315215.7,286046996.9,N
1708315235.5,286046999.1,N
1708315255.3,286046996.7,N
1708315275.2,286046998.4,N
1708315295.9,286046999.4,N
1708315315.7,286046998.4,N
1708315335.6,286046998.2,N
1708315355.4,286046999.2,N
1708315375.3,286046999.1,N
1708315395.1,286046999.2,N
1708315396.0,286046999.2,N
1708315415.8,286046999.1,N
1708315435.7,286046998.2,N
1708315455.5,286046998.3,N
1708315475.4,286047001.1,N
1708315495.2,286047013.9,Y
1708315515.0,286047011.3,P
1708315515.9,286047011.3,N
1708315535.8,286047011.2,N
1708315555.6,286047013.8,N
1708315575.4,286047011.5,N
1708315595.3,286047011.1,N
1708315615.1,286047013.3,N
1708315635.9,286047013.8,Y
1708315655.7,286047001.3,P
1708315675.5,286047001.5,N
1708315695.4,286047001.4,N
1708315715.2,286047002.2,N
1708315735.1,286047002.9,N
1708315736.0,286047002.9,N
1708315755.8,286047003.2,N
1708315775.6,286047004.9,N
1708315795.5,286047003.6,N
1708315815.3,286047005.5,N
1708315835.1,286047007.1,N
1708315855.9,286047005.7,N
1708315875.7,286047004.6,N
1708315895.6,286047005.5,N
1708315915.4,286047002.9,N
1708315935.2,286047003.2,N
1708315955.1,286047003.7,N
1708315956.0,286047003.7,N
1708315975.8,286047003.4,N
1708315995.6,286047003.2,N
1708316015.5,286047005.8,N
1708316035.3,286047003.7,N
1708316055.2,286047005.6,N
1708316075.9,286047004.8,N
1708316095.7,286047006.6,Y
1708316115.6,286046999.9,P
1708316135.4,286047002.6,N
1708316155.2,286047000.4,N
1708316175.1,286047000.9,N
1708316176.0,286047000.9,N
1708316195.8,286047000.1,N
1708316215.7,286047000.3,N
1708316235.5,286046999.7,N
1708316255.3,286047002.3,N
1708316275.2,286047000.4,N
1708316295.0,286047001.2,N
1708316295.9,286047001.2,N
1708316315.8,286047000.0,N
1708316335.6,286047001.0,N
1708316355.4,286047002.6,N
1708316375.3,286047002.8,N
1708316395.1,286047002.3,N
1708316415.8,286047002.6,N
1708316435.7,286047001.5,N
1708316455.5,286047002.0,N
1708316475.4,286047004.3,Y
1708316495.2,286047004.3,P
1708316515.0,286047002.0,N
1708316515.9,286047002.0,N
1708316535.8,286047000.4,N
1708316555.6,286047002.0,N
1708316575.5,286047002.4,N
1708316595.3,286047001.5,N
1708316615.1,286047002.5,N
1708316635.9,286047002.1,N
1708316655.7,286046998.3,N
1708316675.5,286047000.8,N
1708316695.4,286047001.2,N
1708316715.2,286047002.6,N
1708316735.1,286047002.0,N
1708316736.0,286047002.0,N
1708316755.8,286047001.6,N
1708316775.6,286047001.9,N
1708316795.5,286047001.9,N
1708316815.3,286047000.2,N
1708316835.2,286047001.6,N
1708316855.9,286047001.4,N
1708316875.7,286047002.2,N
1708316895.6,286047000.7,N
1708316915.4,286046999.7,N
1708316935.2,286047002.5,N
1708316955.1,286047000.5,N
1708316956.0,286047000.5,N
1708316975.8,286047002.8,N
1708316995.7,286047002.5,N
1708317015.5,286047001.5,N
1708317035.3,286047001.9,N
1708317055.2,286047002.2,N
1708317075.0,286046999.7,N
1708317075.9,286046999.7,N
1708317095.8,286047000.1,N
1708317115.6,286047000.1,N
1708317135.4,286047002.7,N
1708317155.3,286047001.5,N
1708317175.1,286047001.8,N
1708317195.8,286047000.8,N
1708317215.7,286046999.6,N
1708317235.5,286047001.1,N
1708317255.4,286047002.1,N
1708317275.2,286047001.9,N
1708317295.0,286047000.8,N
1708317295.9,286047000.8,N
1708317315.8,286047001.2,N
1708317335.6,286047002.0,N
1708317355.5,286047002.3,N
1708317375.3,286047000.3,N
1708317395.1,286047002.4,N
1708317415.9,286046999.9,N
1708317435.7,286047001.9,N
1708317455.5,286047003.1,Y
1708317475.4,286047002.6,P
1708317495.2,286047001.8,N
1708317515.1,286047002.7,P
1708317516.0,286047002.7,Y
1708317535.8,286046998.4,P
1708317555.6,286047001.2,N
1708317575.5,286046998.1,N
1708317595.3,286046998.5,N
1708317615.2,286046999.8,N
1708317635.9,286047001.9,N
1708317655.7,286047002.0,N
1708317675.6,286046998.6,N
1708317695.4,286047001.2,N
1708317715.2,286047001.2,N
1708317735.1,286046998.1,N
1708317736.0,286046998.1,N
1708317755.8,286047000.8,N
1708317775.7,286046999.2,N
1708317795.5,286046996.8,N
1708317815.3,286046999.2,N
1708317835.2,286046998.2,N
1708317855.0,286046999.3,N
1708317855.9,286046999.3,N
1708317875.8,286046997.8,N
1708317895.6,286046999.2,N
1708317915.4,286046998.6,N
1708317935.3,286046997.3,N
1708317955.1,286046996.5,N
1708317975.8,286046997.8,N
1708317995.7,286046999.4,N
1708318015.5,286046999.9,N
1708318035.4,286047000.6,N
1708318055.2,286047000.2,N
1708318075.0,286047001.4,N
1708318075.9,286047001.4,N
1708318095.8,286047002.7,N
1708318115.6,286047002.1,N
1708318135.5,286047002.6,N
1708318155.3,286047002.8,N
1708318175.1,286047000.1,N
1708318195.9,286047000.3,N
1708318215.7,286047000.5,N
1708318235.5,286046999.7,N
1708318255.4,286047002.3,N
1708318275.2,286047000.7,N
1708318295.1,286047000.6,N
1708318296.0,286047000.6,N
1708318315.8,286047001.2,N
1708318335.6,286047000.5,N
1708318355.5,286046998.1,N
1708318375.3,286047000.7,N
1708318395.1,286047001.2,N
1708318415.9,286046998.3,N
1708318435.7,286046998.8,N
1708318455.6,286047001.1,N
1708318475.4,286047000.7,N
1708318495.2,286047002.4,N
1708318515.1,286047001.2,N
1708318516.0,286047001.2,N
1708318535.8,286046998.3,N
1708318555.7,286047000.7,N
1708318575.5,286046998.9,N
1708318595.3,286047000.4,N
1708318615.2,286047000.9,N
1708318635.0,286047002.5,N
1708318635.9,286047002.5,N
1708318655.7,286047002.1,N
1708318675.6,286047000.0,N
1708318695.4,286046998.1,N
1708318715.3,286047001.0,N
1708318735.1,286047002.3,N
1708318755.8,286046999.8,N
1708318775.7,286047000.2,N
1708318795.5,286047001.1,N
